This is the latest recevied weather packets stored in our database for station/object KI6SYE. If no packets are shown the sender has not sent any weather packets the latest 10 day(s).
| Time | Temp. | Humidity | Pressure | Rain* | Wind** | Luminosity | Snow |
|---|---|---|---|---|---|---|---|
| 1777584402 | 18.89° C | 79% | 1011.7 hPa | 0 mm | - | 685 W/m² | - |
| 1777584099 | 18.33° C | 78% | 1011.6 hPa | 0 mm | - | 695 W/m² | - |
| 1777583798 | 18.89° C | 78% | 1011.6 hPa | 0 mm | - | 703 W/m² | - |
| 1777583493 | 18.33° C | 78% | 1011.3 hPa | 0 mm | - | 711 W/m² | - |
| 1777583187 | 18.89° C | 77% | 1011.8 hPa | 0 mm | - | 717 W/m² | - |
| 1777582882 | 18.89° C | 77% | 1011.7 hPa | 0 mm | - | 726 W/m² | - |
| 1777582580 | 18.33° C | 78% | 1011.9 hPa | 0 mm | - | 734 W/m² | - |
| 1777582275 | 18.89° C | 77% | 1011.7 hPa | 0 mm | - | 739 W/m² | - |
| 1777581972 | 18.89° C | 78% | 1011.6 hPa | 0 mm | - | 744 W/m² | - |
| 1777581668 | 18.89° C | 79% | 1011.5 hPa | 0 mm | - | 750 W/m² | - |
| 1777581362 | 18.33° C | 78% | 1011.8 hPa | 0 mm | - | 758 W/m² | - |
| 1777581057 | 18.33° C | 78% | 1012 hPa | 0 mm | - | 759 W/m² | - |
| 1777580756 | 18.33° C | 77% | 1011.8 hPa | 0 mm | - | 765 W/m² | - |
| 1777580453 | 18.89° C | 78% | 1011.9 hPa | 0 mm | - | 769 W/m² | - |
| 1777580148 | 18.89° C | 76% | 1012 hPa | 0 mm | - | 773 W/m² | - |
| 1777579846 | 18.33° C | 77% | 1011.8 hPa | 0 mm | - | 775 W/m² | - |
| 1777579544 | 18.33° C | 77% | 1011.9 hPa | 0 mm | - | 781 W/m² | - |
| 1777579244 | 18.33° C | 77% | 1011.9 hPa | 0 mm | - | 784 W/m² | - |
| 1777578940 | 18.33° C | 77% | 1011.9 hPa | 0 mm | - | 786 W/m² | - |
| 1777578635 | 18.33° C | 77% | 1012 hPa | 0 mm | - | 788 W/m² | - |
| 1777578334 | 18.33° C | 77% | 1012.1 hPa | 0 mm | - | 790 W/m² | - |
| 1777578032 | 18.33° C | 77% | 1011.8 hPa | 0 mm | - | 790 W/m² | - |
| 1777577726 | 17.78° C | 78% | 1012 hPa | 0 mm | - | 790 W/m² | - |
| 1777577423 | 18.89° C | 77% | 1012 hPa | 0 mm | - | 789 W/m² | - |
| 1777577120 | 18.33° C | 77% | 1011.9 hPa | 0 mm | - | 789 W/m² | - |
* Rain latest hour (hover to see other rain measurements)
** Current wind speed in m/s (hover to see current wind gust speed)